Location: Unspecified
(0.0000°N, 0.0000°E)
Time: 08:18:43
(UTC+02:00)

Cosmos 1733 Rocket - Visible Passes

Search period start: 25 October 2014 00:00
Search period end: 03 November 2014 23:00
Orbit: 604 x 631 km, 82.5° (Epoch: 24 October)

Date Brightness Start Highest point End Pass type
(mag) Time Alt. Az. Time Alt. Az. Time Alt. Az.
25 Oct 5.5 20:22:53 10° NW 20:26:34 27° W 20:30:17 10° SSW visible
26 Oct 6.3 05:54:49 10° SE 05:57:37 17° E 06:00:22 10° NE visible
26 Oct 6.5 19:41:40 10° WNW 19:43:26 12° W 19:45:13 10° WSW visible
27 Oct 4.9 06:10:26 10° SSE 06:14:29 36° E 06:18:29 10° NNE visible
30 Oct 6.2 05:24:41 10° SE 05:27:29 17° E 05:30:16 10° NE visible
30 Oct 6.6 19:11:35 10° WNW 19:13:19 12° W 19:15:03 10° WSW visible
31 Oct 4.7 05:40:18 10° SSE 05:44:21 37° E 05:48:21 10° NNE visible
01 Nov 3.1 05:56:49 10° S 06:01:12 87° E 06:05:33 10° N visible
02 Nov 3.5 06:13:58 10° SSW 06:18:03 39° W 06:22:06 10° NNW visible
03 Nov 5.9 04:54:32 10° SE 04:57:21 17° E 05:00:08 10° NE visible
